Zurück zum Katalog

STARLINK-6110

AktivKommunikationVLEO
NORAD 56907·PAYLOAD·🇺🇸 United States

Gestartet Jun 12, 2023 von Cape Canaveral Space Force Station

Loading…

Nächste Überflüge (nächste 24 Stunden)

TLE

AktuellSource: CelesTrak SupGP

Epoche: Sep 14, 2026, 13:30 UTC

1 56907C 23083AH  26257.56298611 -.00000978  00000+0 -35442-4 0  2577
2 56907  42.9997  83.7077 0001405 257.2912 247.1332 15.27578064    17

Verfolge STARLINK-6110 in Echtzeit mit AllMySat

Download on the App Store